Columbia Owens, SC

4:13 AM EST on November 13, 2019 (GMT -0500)
Columbia Owens Downtown

Weather History for KCUB - September, 2019

Change the Weather History Date:

Tuesday, September 10, 2019

  Actual Average Record
Temperature  
Mean Temperature 86 °F 78 °F  
Max Temperature 94 °F 87 °F 95 °F (2007)
Min Temperature 77 °F 68 °F 60 °F (2011)
Degree Days  
Heating Degree Days 0 0  
Month to date heating degree days 0 0  
Since 1 July heating degree days 0 0  
Cooling Degree Days 21 13  
Month to date cooling degree days 183 135  
Year to date cooling degree days 2306 1953  
Growing Degree Days 35 (Base 50)    
Moisture  
Dew Point 73 °F    
Average Humidity 75    
Maximum Humidity 94    
Minimum Humidity 41    
Precipitation  
Precipitation 0.00 in 0.14 in 0.23 in (2018)
Month to date precipitation 0.61 1.41  
Year to date precipitation 23.79 33.26  
Sea Level Pressure  
Sea Level Pressure 30.22 in    
Wind  
Wind Speed 2 mph (ESE)    
Max Wind Speed 9 mph    
Max Gust Speed 14 mph    
Visibility 8 miles    
Events      
T = Trace of Precipitation, MM = Missing Value Source: NWS Daily Summary

Daily Weather History Graph

Daily Weather History Graph

Search for Another Location

Airport or City:

Astronomy

Sep. 10, 2019 Rise Set
Actual Time 7:03 AM EDT 7:37 PM EDT
Civil Twilight 6:38 AM EDT 8:02 PM EDT
Nautical Twilight 6:08 AM EDT 8:32 PM EDT
Astronomical Twilight 5:38 AM EDT 9:02 PM EDT
Moon 6:02 PM EDT (9/10) 3:40 AM EDT (9/10)
Length of Visible Light 13h 24m
Length of Day
12h 34m
Waxing Gibbous, 89% of the Moon is Illuminated
Sep 10
Waxing Gibbous
Sep 14
Full
Sep 21
Last Quarter
Sep 28
New
Oct 5
First Quarter

Hourly Weather History & Observations

Time (EDT) Temp. Heat Index Dew Point Humidity Pressure Visibility Wind Dir Wind Speed Gust Speed Precip Events Conditions
12:31 AM 80.1 °F 85.1 °F 75.0 °F 85% 30.20 in 10.0 mi SE 3.5 mph - N/A   Mostly Cloudy
12:38 AM 80.1 °F 85.1 °F 75.0 °F 85% 30.20 in 10.0 mi Calm Calm - N/A   Scattered Clouds
12:46 AM 80.1 °F 85.1 °F 75.0 °F 85% 30.20 in 10.0 mi ESE 4.6 mph - N/A   Mostly Cloudy
12:53 AM 80.1 °F 85.1 °F 75.0 °F 85% 30.19 in 10.0 mi Variable 3.5 mph - N/A   Mostly Cloudy
1:06 AM 80.1 °F 85.1 °F 75.0 °F 85% 30.20 in 10.0 mi Calm Calm - N/A   Mostly Cloudy
1:53 AM 79.0 °F - 75.0 °F 88% 30.17 in 8.0 mi Calm Calm - N/A   Partly Cloudy
2:53 AM 78.1 °F - 75.0 °F 90% 30.17 in 7.0 mi Calm Calm - N/A   Clear
3:53 AM 78.1 °F - 75.0 °F 90% 30.18 in 7.0 mi Calm Calm - N/A   Clear
4:27 AM 77.0 °F - 75.0 °F 94% 30.20 in 6.0 mi Calm Calm - N/A   Scattered Clouds
4:39 AM 77.0 °F - 75.0 °F 94% 30.20 in 6.0 mi Calm Calm - N/A   Mostly Cloudy
4:53 AM 77.0 °F - 75.0 °F 94% 30.19 in 6.0 mi Calm Calm - N/A   Overcast
5:53 AM 78.1 °F - 75.0 °F 90% 30.20 in 6.0 mi Calm Calm - N/A   Overcast
6:53 AM 78.1 °F - 75.0 °F 90% 30.22 in 6.0 mi Calm Calm - N/A   Overcast
7:53 AM 78.1 °F - 75.0 °F 90% 30.23 in 5.0 mi Calm Calm - N/A   Overcast
8:53 AM 78.1 °F - 75.0 °F 90% 30.26 in 6.0 mi Variable 3.5 mph - N/A   Overcast
9:53 AM 79.0 °F - 73.9 °F 84% 30.28 in 7.0 mi Calm Calm - N/A   Overcast
10:03 AM 80.1 °F 84.5 °F 73.9 °F 81% 30.28 in 7.0 mi Calm Calm - N/A   Overcast
10:19 AM 81.0 °F 86.2 °F 73.9 °F 79% 30.29 in 7.0 mi Calm Calm - N/A   Overcast
10:39 AM 82.0 °F 87.9 °F 73.9 °F 76% 30.28 in 8.0 mi Calm Calm - N/A   Overcast
10:53 AM 82.0 °F 87.9 °F 73.9 °F 76% 30.28 in 8.0 mi Calm Calm - N/A   Overcast
11:53 AM 84.9 °F 92.1 °F 73.9 °F 69% 30.28 in 9.0 mi Variable 4.6 mph - N/A   Mostly Cloudy
12:24 PM 87.1 °F 95.4 °F 73.9 °F 65% 30.28 in 9.0 mi East 6.9 mph - N/A   Scattered Clouds
12:53 PM 87.1 °F 95.4 °F 73.9 °F 65% 30.26 in 9.0 mi Variable 5.8 mph - N/A   Partly Cloudy
1:53 PM 90.0 °F 97.9 °F 73.0 °F 57% 30.25 in 10.0 mi Variable 3.5 mph - N/A   Clear
2:53 PM 93.0 °F 100.7 °F 72.0 °F 50% 30.22 in 10.0 mi Variable 3.5 mph - N/A   Mostly Cloudy
3:53 PM 93.9 °F 99.1 °F 69.1 °F 44% 30.21 in 10.0 mi Variable 3.5 mph - N/A   Mostly Cloudy
4:53 PM 93.0 °F 96.4 °F 66.9 °F 42% 30.20 in 10.0 mi Variable 4.6 mph - N/A   Partly Cloudy
5:53 PM 93.9 °F 97.5 °F 66.9 °F 41% 30.19 in 10.0 mi Variable 4.6 mph - N/A   Mostly Cloudy
6:53 PM 91.0 °F 95.6 °F 69.1 °F 48% 30.19 in 10.0 mi Variable 3.5 mph - N/A   Clear
7:53 PM 88.0 °F 92.9 °F 70.0 °F 55% 30.20 in 10.0 mi Calm Calm - N/A   Clear
8:53 PM 84.9 °F 89.4 °F 70.0 °F 61% 30.21 in 10.0 mi Calm Calm - N/A   Clear
9:53 PM 84.0 °F 88.4 °F 70.0 °F 63% 30.23 in 10.0 mi Calm Calm - N/A   Clear
11:53 PM 81.0 °F 84.9 °F 71.1 °F 72% 30.25 in 10.0 mi Calm Calm - N/A   Clear